PDA6123 LMML-UKWW

Flight info

Callsign PDA6123
Flight time 2h 42m
Altitude 34000
Route VESOD DCT CRN DCT PAPIZ DCT ALELU DCT VELIP DCT TIDGA DCT ROMOL/K0850F340 P129 KOROP
Aircraft B738/M-SDE2E3FGHIRWXY/LB1

Departure

Time 2026-05-05 15:18
Airport Malta International Airport (LMML)

Arrival

Time 2026-05-05 18:00
Airport Vinnytsia/Gavyryshivka International Airport (UKWW)
Time Latitude Longitude Altitude Speed Heading
2026-05-05 14:37 35.84813 14.49516 244 ft 0 kts 360°
2026-05-05 15:09 35.84811 14.49516 243 ft 1 kts 360°
2026-05-05 15:09 35.84796 14.49516 243 ft 2 kts 359°
2026-05-05 15:09 35.84781 14.49516 243 ft 2 kts 360°
2026-05-05 15:09 35.84766 14.49516 243 ft 2 kts 360°
2026-05-05 15:10 35.84750 14.49516 243 ft 2 kts 359°
2026-05-05 15:10 35.84740 14.49516 243 ft 2 kts 353°
2026-05-05 15:10 35.84726 14.49523 243 ft 1 kts 320°
2026-05-05 15:10 35.84722 14.49529 243 ft 1 kts 312°
2026-05-05 15:11 35.84721 14.49531 243 ft 0 kts 314°
2026-05-05 15:12 35.84723 14.49528 243 ft 0 kts 313°
2026-05-05 15:12 35.84723 14.49527 243 ft 0 kts 313°
2026-05-05 15:13 35.84733 14.49515 243 ft 2 kts 313°
2026-05-05 15:13 35.84761 14.49478 244 ft 9 kts 313°
2026-05-05 15:13 35.84812 14.49414 244 ft 9 kts 314°
2026-05-05 15:13 35.84867 14.49348 244 ft 12 kts 316°
2026-05-05 15:14 35.84930 14.49249 246 ft 16 kts 287°
2026-05-05 15:14 35.84908 14.49109 247 ft 18 kts 289°
2026-05-05 15:14 35.84987 14.48967 249 ft 21 kts 311°
2026-05-05 15:14 35.85099 14.48828 253 ft 23 kts 314°
2026-05-05 15:15 35.85225 14.48672 255 ft 27 kts 315°
2026-05-05 15:15 35.85365 14.48501 257 ft 26 kts 313°
2026-05-05 15:15 35.85497 14.48340 258 ft 25 kts 315°
2026-05-05 15:15 35.85623 14.48212 257 ft 21 kts 339°
2026-05-05 15:16 35.85662 14.48081 257 ft 16 kts 271°
2026-05-05 15:16 35.85667 14.47954 257 ft 13 kts 240°
2026-05-05 15:16 35.85593 14.47947 258 ft 11 kts 139°
2026-05-05 15:16 35.85569 14.47976 258 ft 0 kts 134°
2026-05-05 15:17 35.85567 14.47978 258 ft 2 kts 134°
2026-05-05 15:17 35.85374 14.48217 259 ft 79 kts 134°
2026-05-05 15:17 35.84803 14.48926 249 ft 151 kts 134°
2026-05-05 15:17 35.83987 14.49978 798 ft 170 kts 133°
2026-05-05 15:18 35.83194 14.50938 1813 ft 157 kts 136°
2026-05-05 15:18 35.82173 14.51591 2153 ft 181 kts 174°
2026-05-05 15:18 35.80919 14.51130 2659 ft 198 kts 210°
2026-05-05 15:18 35.79708 14.50191 3163 ft 214 kts 199°
2026-05-05 15:19 35.78171 14.50038 3693 ft 228 kts 171°
2026-05-05 15:19 35.76600 14.50673 4223 ft 245 kts 150°
2026-05-05 15:19 35.75128 14.51914 4802 ft 261 kts 140°
2026-05-05 15:19 35.73916 14.53640 5481 ft 271 kts 115°
2026-05-05 15:20 35.73506 14.55914 6371 ft 273 kts 89°
2026-05-05 15:20 35.73729 14.58247 7141 ft 278 kts 73°
2026-05-05 15:20 35.74650 14.60319 7896 ft 282 kts 45°
2026-05-05 15:20 35.76280 14.61704 8679 ft 286 kts 23°
2026-05-05 15:21 35.78217 14.62350 9452 ft 289 kts
2026-05-05 15:21 35.80208 14.62530 10224 ft 292 kts
2026-05-05 15:21 35.82318 14.62665 10759 ft 306 kts
2026-05-05 15:21 35.84531 14.62827 11230 ft 322 kts
2026-05-05 15:22 35.86858 14.63012 11664 ft 337 kts
2026-05-05 15:22 35.89284 14.63212 12090 ft 352 kts
2026-05-05 15:22 35.91781 14.63419 12475 ft 368 kts
2026-05-05 15:22 35.94428 14.63640 12884 ft 383 kts
2026-05-05 15:23 35.97161 14.63868 13241 ft 398 kts
2026-05-05 15:23 35.99901 14.64388 13840 ft 406 kts 15°
2026-05-05 15:23 36.02383 14.66056 14483 ft 415 kts 38°
2026-05-05 15:23 36.04315 14.68730 15128 ft 422 kts 53°
2026-05-05 15:24 36.05851 14.71863 15741 ft 428 kts 61°
2026-05-05 15:24 36.07158 14.75143 16337 ft 433 kts 64°
2026-05-05 15:24 36.08421 14.78573 16933 ft 437 kts 64°
2026-05-05 15:24 36.09658 14.81983 17511 ft 441 kts 64°
2026-05-05 15:25 36.10921 14.85453 18077 ft 445 kts 64°
2026-05-05 15:25 36.12199 14.88944 18642 ft 449 kts 64°
2026-05-05 15:25 36.13498 14.92479 19198 ft 452 kts 64°
2026-05-05 15:25 36.14833 14.96098 19758 ft 456 kts 64°
2026-05-05 15:26 36.16162 14.99697 20282 ft 460 kts 64°
2026-05-05 15:26 36.17510 15.03347 20830 ft 464 kts 64°
2026-05-05 15:26 36.18859 15.07003 21356 ft 467 kts 64°
2026-05-05 15:26 36.20226 15.10714 21839 ft 472 kts 64°
2026-05-05 15:27 36.21617 15.14492 22375 ft 474 kts 64°
2026-05-05 15:27 36.22978 15.18194 22836 ft 478 kts 64°
2026-05-05 15:27 36.24379 15.22009 23326 ft 481 kts 64°
2026-05-05 15:27 36.25769 15.25801 23787 ft 485 kts 64°
2026-05-05 15:28 36.27185 15.29667 24266 ft 488 kts 64°
2026-05-05 15:28 36.28595 15.33519 24743 ft 491 kts 64°
2026-05-05 15:28 36.30022 15.37424 25205 ft 495 kts 64°
2026-05-05 15:28 36.31435 15.41296 25649 ft 498 kts 63°
2026-05-05 15:29 36.32861 15.45210 26100 ft 500 kts 63°
2026-05-05 15:29 36.34310 15.49193 26861 ft 496 kts 63°
2026-05-05 15:29 36.35711 15.53049 27497 ft 494 kts 63°
2026-05-05 15:29 36.37148 15.57009 28083 ft 493 kts 63°
2026-05-05 15:30 36.38552 15.60882 28634 ft 492 kts 63°
2026-05-05 15:30 36.39961 15.64773 29220 ft 490 kts 63°
2026-05-05 15:30 36.41358 15.68635 29717 ft 490 kts 63°
2026-05-05 15:30 36.42759 15.72513 30231 ft 489 kts 63°
2026-05-05 15:31 36.44166 15.76411 30694 ft 488 kts 63°
2026-05-05 15:31 36.45612 15.80257 31146 ft 487 kts 61°
2026-05-05 15:31 36.47265 15.83999 31596 ft 484 kts 55°
2026-05-05 15:31 36.49274 15.87318 32009 ft 479 kts 44°
2026-05-05 15:32 36.51644 15.90283 32397 ft 476 kts 40°
2026-05-05 15:32 36.54152 15.93026 32863 ft 472 kts 34°
2026-05-05 15:32 36.56882 15.95253 33236 ft 465 kts 24°
2026-05-05 15:32 36.59829 15.96947 33639 ft 461 kts 18°
2026-05-05 15:33 36.62824 15.98423 34000 ft 460 kts 16°
2026-05-05 15:33 36.68908 16.01190 34079 ft 463 kts 15°
2026-05-05 15:34 36.75018 16.03920 34077 ft 458 kts 15°
2026-05-05 15:34 36.81070 16.06633 34075 ft 459 kts 15°
2026-05-05 15:35 36.87170 16.09378 34077 ft 459 kts 15°
2026-05-05 15:35 36.93212 16.12107 34078 ft 457 kts 15°
2026-05-05 15:36 36.99274 16.14849 34077 ft 458 kts 15°
2026-05-05 15:36 37.05279 16.17571 34075 ft 457 kts 15°
2026-05-05 15:37 37.11353 16.20329 34079 ft 458 kts 15°
2026-05-05 15:37 37.17361 16.23064 34079 ft 456 kts 15°
2026-05-05 15:38 37.23349 16.25795 34082 ft 456 kts 15°
2026-05-05 15:38 37.29301 16.28513 34077 ft 454 kts 15°
2026-05-05 15:39 37.35298 16.31254 34079 ft 454 kts 15°
2026-05-05 15:39 37.41301 16.34004 34082 ft 454 kts 15°
2026-05-05 15:40 37.47269 16.36743 34074 ft 453 kts 15°
2026-05-05 15:40 37.53184 16.39462 34075 ft 453 kts 15°
2026-05-05 15:41 37.59101 16.42187 34078 ft 454 kts 15°
2026-05-05 15:41 37.65039 16.44926 34079 ft 453 kts 15°
2026-05-05 15:42 37.70896 16.47632 34075 ft 452 kts 15°
2026-05-05 15:42 37.76848 16.50387 34075 ft 452 kts 15°
2026-05-05 15:43 37.82790 16.53141 34074 ft 452 kts 15°
2026-05-05 15:43 37.88720 16.55896 34077 ft 452 kts 15°
2026-05-05 15:44 37.94666 16.58662 34071 ft 451 kts 15°
2026-05-05 15:44 38.00545 16.61401 34072 ft 452 kts 15°
2026-05-05 15:45 38.06486 16.64175 34068 ft 451 kts 15°
2026-05-05 15:45 38.12382 16.66930 34066 ft 453 kts 15°
2026-05-05 15:46 38.18312 16.69708 34064 ft 453 kts 15°
2026-05-05 15:46 38.24224 16.72483 34063 ft 452 kts 15°
2026-05-05 15:47 38.30158 16.75273 34064 ft 451 kts 15°
2026-05-05 15:47 38.36026 16.78036 34060 ft 451 kts 15°
2026-05-05 15:48 38.41924 16.80817 34066 ft 451 kts 15°
2026-05-05 15:48 38.47803 16.83596 34063 ft 451 kts 15°
2026-05-05 15:49 38.53705 16.86389 34062 ft 451 kts 15°
2026-05-05 15:49 38.59540 16.89156 34055 ft 450 kts 15°
2026-05-05 15:50 38.65457 16.91965 34057 ft 451 kts 15°
2026-05-05 15:50 38.71323 16.94757 34055 ft 449 kts 15°
2026-05-05 15:51 38.77214 16.97564 34053 ft 450 kts 15°
2026-05-05 15:51 38.83048 17.00349 34062 ft 450 kts 15°
2026-05-05 15:52 38.88871 17.03136 34052 ft 447 kts 15°
2026-05-05 15:52 38.94705 17.05944 34063 ft 448 kts 17°
2026-05-05 15:53 39.00328 17.09390 34062 ft 455 kts 25°
2026-05-05 15:53 39.05594 17.13997 34065 ft 458 kts 31°
2026-05-05 15:54 39.10670 17.18820 34064 ft 458 kts 31°
2026-05-05 15:54 39.15657 17.23586 34061 ft 457 kts 31°
2026-05-05 15:55 39.20720 17.28434 34061 ft 456 kts 31°
2026-05-05 15:55 39.25805 17.33314 34057 ft 457 kts 31°
2026-05-05 15:56 39.30900 17.38212 34056 ft 457 kts 31°
2026-05-05 15:56 39.35910 17.43040 34055 ft 455 kts 31°
2026-05-05 15:57 39.40975 17.47926 34056 ft 457 kts 31°
2026-05-05 15:57 39.46052 17.52835 34061 ft 455 kts 31°
2026-05-05 15:58 39.51109 17.57734 34058 ft 455 kts 31°
2026-05-05 15:58 39.56162 17.62639 34059 ft 454 kts 31°
2026-05-05 15:59 39.61179 17.67518 34059 ft 455 kts 31°
2026-05-05 15:59 39.66222 17.72430 34067 ft 455 kts 31°
2026-05-05 16:00 39.71219 17.77304 34059 ft 455 kts 31°
2026-05-05 16:00 39.76276 17.82247 34060 ft 456 kts 31°
2026-05-05 16:01 39.81311 17.87184 34070 ft 454 kts 31°
2026-05-05 16:01 39.86324 17.92104 34065 ft 453 kts 31°
2026-05-05 16:02 39.91390 17.97085 34071 ft 453 kts 31°
2026-05-05 16:02 39.96416 18.02035 34072 ft 455 kts 31°
2026-05-05 16:03 40.01490 18.07041 34070 ft 457 kts 31°
2026-05-05 16:03 40.06506 18.12003 34071 ft 456 kts 31°
2026-05-05 16:04 40.11498 18.16949 34073 ft 456 kts 31°
2026-05-05 16:04 40.16479 18.21895 34077 ft 456 kts 30°
2026-05-05 16:05 40.21476 18.26861 34074 ft 458 kts 30°
2026-05-05 16:05 40.26486 18.31854 34073 ft 458 kts 30°
2026-05-05 16:06 40.31503 18.36861 34071 ft 459 kts 30°
2026-05-05 16:06 40.36539 18.41902 34070 ft 459 kts 30°
2026-05-05 16:07 40.41598 18.46968 34068 ft 460 kts 30°
2026-05-05 16:07 40.46629 18.52024 34069 ft 459 kts 30°
2026-05-05 16:08 40.51685 18.57111 34065 ft 459 kts 30°
2026-05-05 16:08 40.56678 18.62141 34069 ft 461 kts 30°
2026-05-05 16:09 40.61731 18.67245 34065 ft 460 kts 30°
2026-05-05 16:09 40.66742 18.72311 34069 ft 463 kts 31°
2026-05-05 16:10 40.71793 18.77434 34069 ft 463 kts 31°
2026-05-05 16:10 40.76840 18.82562 34067 ft 463 kts 31°
2026-05-05 16:11 40.81831 18.87643 34067 ft 463 kts 31°
2026-05-05 16:12 40.92399 18.96902 34068 ft 449 kts 17°
2026-05-05 16:13 41.06680 19.04847 34069 ft 450 kts 15°
2026-05-05 16:13 41.12358 19.07989 34071 ft 451 kts 15°
2026-05-05 16:14 41.23646 19.14261 34071 ft 452 kts 15°
2026-05-05 16:15 41.35097 19.20659 34072 ft 452 kts 15°
2026-05-05 16:16 41.46518 19.27064 34074 ft 452 kts 15°
2026-05-05 16:17 41.55075 19.31876 34074 ft 455 kts 16°
2026-05-05 16:18 41.63746 19.36773 34078 ft 453 kts 16°
2026-05-05 16:19 41.72344 19.41638 34078 ft 453 kts 16°
2026-05-05 16:19 41.80928 19.46511 34078 ft 455 kts 17°
2026-05-05 16:20 41.92480 19.53090 34083 ft 457 kts 16°
2026-05-05 16:22 42.07032 19.61415 34075 ft 456 kts 16°
2026-05-05 16:23 42.18598 19.68062 34093 ft 457 kts 17°
2026-05-05 16:23 42.27263 19.73061 34111 ft 455 kts 17°
2026-05-05 16:24 42.33071 19.76420 34107 ft 453 kts 17°
2026-05-05 16:25 42.41787 19.81470 34124 ft 455 kts 17°
2026-05-05 16:25 42.50435 19.86612 34140 ft 457 kts 20°
2026-05-05 16:26 42.61729 19.94671 34145 ft 457 kts 22°
2026-05-05 16:27 42.67365 19.98704 34141 ft 456 kts 22°
2026-05-05 16:27 42.73003 20.02722 34145 ft 456 kts 22°
2026-05-05 16:28 42.78622 20.06725 34152 ft 455 kts 22°
2026-05-05 16:28 42.84222 20.10717 34145 ft 454 kts 22°
2026-05-05 16:29 42.89855 20.14734 34134 ft 457 kts 22°
2026-05-05 16:29 42.95476 20.18754 34122 ft 456 kts 22°
2026-05-05 16:30 43.01073 20.22762 34106 ft 454 kts 23°
2026-05-05 16:30 43.06668 20.26779 34094 ft 453 kts 23°
2026-05-05 16:31 43.12231 20.30778 34091 ft 454 kts 23°
2026-05-05 16:31 43.17762 20.34764 34069 ft 453 kts 23°
2026-05-05 16:32 43.23283 20.38752 34062 ft 454 kts 23°
2026-05-05 16:32 43.28830 20.42766 34060 ft 452 kts 23°
2026-05-05 16:33 43.34373 20.46785 34044 ft 452 kts 23°
2026-05-05 16:33 43.39914 20.50812 34055 ft 452 kts 23°
2026-05-05 16:34 43.45369 20.54782 34040 ft 452 kts 23°
2026-05-05 16:34 43.50868 20.58792 34048 ft 452 kts 24°
2026-05-05 16:35 43.56323 20.62782 34038 ft 452 kts 24°
2026-05-05 16:35 43.61894 20.66860 34020 ft 451 kts 24°
2026-05-05 16:36 43.67367 20.70880 34012 ft 451 kts 24°
2026-05-05 16:36 43.72826 20.74896 34001 ft 450 kts 24°
2026-05-05 16:37 43.78317 20.78946 33986 ft 450 kts 24°
2026-05-05 16:37 43.83808 20.83001 33999 ft 451 kts 24°
2026-05-05 16:38 43.89299 20.87067 33999 ft 449 kts 25°
2026-05-05 16:38 43.94562 20.90970 33992 ft 449 kts 25°
2026-05-05 16:39 43.99990 20.95005 33985 ft 448 kts 25°
2026-05-05 16:39 44.05459 20.99078 33983 ft 449 kts 25°
2026-05-05 16:40 44.11009 21.03221 33977 ft 450 kts 25°
2026-05-05 16:40 44.16456 21.07294 33970 ft 450 kts 25°
2026-05-05 16:41 44.21965 21.11426 33970 ft 449 kts 25°
2026-05-05 16:41 44.27394 21.15505 33966 ft 449 kts 25°
2026-05-05 16:42 44.32787 21.19564 33955 ft 448 kts 25°
2026-05-05 16:42 44.38197 21.23645 33964 ft 448 kts 25°
2026-05-05 16:43 44.43670 21.27782 33969 ft 449 kts 25°
2026-05-05 16:43 44.49151 21.31934 33965 ft 449 kts 25°
2026-05-05 16:44 44.54600 21.36071 33962 ft 449 kts 25°
2026-05-05 16:44 44.59969 21.40156 33963 ft 448 kts 25°
2026-05-05 16:45 44.65352 21.44261 33950 ft 448 kts 25°
2026-05-05 16:45 44.70799 21.48425 33957 ft 448 kts 25°
2026-05-05 16:46 44.76209 21.52567 33957 ft 448 kts 25°
2026-05-05 16:46 44.81482 21.56993 33963 ft 451 kts 30°
2026-05-05 16:47 44.86727 21.61865 33974 ft 450 kts 30°
2026-05-05 16:47 44.91916 21.66684 33988 ft 450 kts 30°
2026-05-05 16:48 44.97105 21.71482 33994 ft 450 kts 30°
2026-05-05 16:48 45.02188 21.76174 34009 ft 448 kts 30°
2026-05-05 16:49 45.07359 21.80946 34007 ft 449 kts 30°
2026-05-05 16:49 45.12585 21.85776 34012 ft 449 kts 30°
2026-05-05 16:50 45.17654 21.90468 34015 ft 449 kts 30°
2026-05-05 16:50 45.22798 21.95239 34018 ft 450 kts 31°
2026-05-05 16:51 45.28000 22.00074 34026 ft 450 kts 31°
2026-05-05 16:51 45.33195 22.04912 34017 ft 449 kts 31°
2026-05-05 16:52 45.38361 22.09734 33995 ft 448 kts 31°
2026-05-05 16:52 45.43520 22.14561 33982 ft 449 kts 31°
2026-05-05 16:53 45.48701 22.19417 33974 ft 449 kts 31°
2026-05-05 16:53 45.53798 22.24205 33966 ft 450 kts 31°
2026-05-05 16:54 45.59052 22.29152 33971 ft 449 kts 31°
2026-05-05 16:54 45.64201 22.34011 33985 ft 448 kts 31°
2026-05-05 16:55 45.69376 22.38907 33998 ft 448 kts 31°
2026-05-05 16:55 45.74500 22.43765 34017 ft 447 kts 31°
2026-05-05 16:56 45.79635 22.48644 34022 ft 448 kts 31°
2026-05-05 16:56 45.84686 22.53453 34015 ft 448 kts 31°
2026-05-05 16:57 45.89842 22.58373 34001 ft 446 kts 31°
2026-05-05 16:57 45.94929 22.63240 33985 ft 447 kts 31°
2026-05-05 16:58 46.00077 22.68176 33976 ft 447 kts 32°
2026-05-05 16:58 46.05169 22.73070 33971 ft 446 kts 32°
2026-05-05 16:59 46.10281 22.77993 33982 ft 446 kts 32°
2026-05-05 16:59 46.15396 22.82929 33988 ft 446 kts 32°
2026-05-05 17:00 46.20518 22.87884 33996 ft 445 kts 32°
2026-05-05 17:00 46.25554 22.92766 34005 ft 445 kts 32°
2026-05-05 17:01 46.30646 22.97714 34016 ft 444 kts 32°
2026-05-05 17:01 46.35752 23.02688 34034 ft 444 kts 32°
2026-05-05 17:02 46.40521 23.08135 34043 ft 446 kts 40°
2026-05-05 17:02 46.44933 23.14219 34057 ft 447 kts 42°
2026-05-05 17:03 46.49295 23.20411 34069 ft 447 kts 42°
2026-05-05 17:03 46.53692 23.26694 34068 ft 446 kts 42°
2026-05-05 17:04 46.58060 23.32963 34055 ft 446 kts 42°
2026-05-05 17:04 46.62444 23.39275 34030 ft 446 kts 42°
2026-05-05 17:05 46.66798 23.45562 34008 ft 446 kts 42°
2026-05-05 17:05 46.71114 23.51810 33991 ft 446 kts 42°
2026-05-05 17:06 46.75443 23.58094 33980 ft 445 kts 42°
2026-05-05 17:06 46.79785 23.64410 33980 ft 445 kts 42°
2026-05-05 17:07 46.84142 23.70763 33980 ft 445 kts 43°
2026-05-05 17:07 46.88383 23.76964 33983 ft 444 kts 43°
2026-05-05 17:08 46.92741 23.83348 33981 ft 444 kts 43°
2026-05-05 17:08 46.97081 23.89725 33982 ft 445 kts 43°
2026-05-05 17:09 47.01395 23.96077 33979 ft 444 kts 43°
2026-05-05 17:09 47.05720 24.02462 33982 ft 444 kts 43°
2026-05-05 17:10 47.09993 24.08787 33987 ft 443 kts 43°
2026-05-05 17:10 47.14337 24.15231 33993 ft 442 kts 43°
2026-05-05 17:11 47.18619 24.21598 33991 ft 442 kts 43°
2026-05-05 17:11 47.22889 24.27964 33998 ft 443 kts 43°
2026-05-05 17:12 47.27066 24.34207 34002 ft 443 kts 43°
2026-05-05 17:12 47.31304 24.40554 34010 ft 443 kts 43°
2026-05-05 17:13 47.35606 24.47014 34016 ft 442 kts 43°
2026-05-05 17:13 47.39868 24.53431 34017 ft 442 kts 43°
2026-05-05 17:14 47.44133 24.59865 34021 ft 442 kts 43°
2026-05-05 17:14 47.48291 24.66154 34024 ft 442 kts 44°
2026-05-05 17:15 47.52569 24.72640 34023 ft 442 kts 44°
2026-05-05 17:15 47.56788 24.79051 34023 ft 442 kts 44°
2026-05-05 17:16 47.61034 24.85523 34025 ft 441 kts 44°
2026-05-05 17:16 47.65285 24.92016 34027 ft 441 kts 44°
2026-05-05 17:17 47.69495 24.98463 34030 ft 441 kts 44°
2026-05-05 17:17 47.73701 25.04914 34029 ft 440 kts 44°
2026-05-05 17:18 47.78225 25.11040 34026 ft 440 kts 39°
2026-05-05 17:18 47.82861 25.16913 34024 ft 441 kts 39°
2026-05-05 17:19 47.87394 25.22712 34017 ft 440 kts 39°
2026-05-05 17:19 47.91925 25.28566 34015 ft 440 kts 39°
2026-05-05 17:20 47.96492 25.34503 34012 ft 440 kts 39°
2026-05-05 17:20 48.01070 25.40480 34007 ft 440 kts 39°
2026-05-05 17:21 48.05585 25.46582 34001 ft 441 kts 43°
2026-05-05 17:22 48.11336 25.57198 33986 ft 443 kts 52°
2026-05-05 17:22 48.14901 25.64625 33972 ft 443 kts 52°
2026-05-05 17:23 48.18395 25.71967 33967 ft 444 kts 53°
2026-05-05 17:23 48.21904 25.79382 33963 ft 444 kts 53°
2026-05-05 17:24 48.25377 25.86753 33956 ft 444 kts 53°
2026-05-05 17:24 48.28872 25.94192 33953 ft 444 kts 53°
2026-05-05 17:25 48.32427 26.01782 33945 ft 444 kts 53°
2026-05-05 17:25 48.35969 26.09369 33944 ft 444 kts 53°
2026-05-05 17:26 48.39477 26.16905 33947 ft 444 kts 53°
2026-05-05 17:26 48.42999 26.24491 33940 ft 443 kts 53°
2026-05-05 17:27 48.46508 26.32071 33948 ft 443 kts 53°
2026-05-05 17:27 48.50040 26.39722 33941 ft 443 kts 53°
2026-05-05 17:28 48.53558 26.47364 33943 ft 443 kts 53°
2026-05-05 17:28 48.57070 26.55014 33948 ft 443 kts 53°
2026-05-05 17:29 48.60553 26.62623 33952 ft 443 kts 53°
2026-05-05 17:29 48.63969 26.70108 33801 ft 439 kts 54°
2026-05-05 17:29 48.65747 26.74010 33239 ft 437 kts 54°
2026-05-05 17:30 48.67383 26.77606 32550 ft 437 kts 54°
2026-05-05 17:30 48.69100 26.81388 31771 ft 439 kts 54°
2026-05-05 17:30 48.70809 26.85156 30956 ft 441 kts 54°
2026-05-05 17:30 48.72494 26.88877 30115 ft 443 kts 54°
2026-05-05 17:31 48.74266 26.92792 29277 ft 444 kts 54°
2026-05-05 17:31 48.75991 26.96614 28617 ft 438 kts 54°
2026-05-05 17:31 48.77714 27.00435 27804 ft 436 kts 54°
2026-05-05 17:31 48.79381 27.04136 26966 ft 436 kts 55°
2026-05-05 17:32 48.81071 27.07893 26034 ft 439 kts 55°
2026-05-05 17:32 48.82783 27.11703 25162 ft 446 kts 55°
2026-05-05 17:32 48.84534 27.15608 24532 ft 445 kts 56°
2026-05-05 17:32 48.86272 27.19488 23867 ft 443 kts 56°
2026-05-05 17:33 48.87996 27.23344 23168 ft 432 kts 56°
2026-05-05 17:33 48.89681 27.27117 22471 ft 423 kts 56°
2026-05-05 17:33 48.91324 27.30803 21989 ft 422 kts 56°
2026-05-05 17:33 48.92995 27.34556 21722 ft 427 kts 56°
2026-05-05 17:34 48.94665 27.38312 21449 ft 428 kts 56°
2026-05-05 17:34 48.96070 27.41475 21223 ft 426 kts 56°
2026-05-05 17:34 48.97720 27.45193 20961 ft 423 kts 56°
2026-05-05 17:34 48.99377 27.48934 20695 ft 421 kts 56°
2026-05-05 17:35 49.01010 27.52625 20433 ft 419 kts 56°
2026-05-05 17:35 49.02626 27.56284 20176 ft 418 kts 56°
2026-05-05 17:35 49.04255 27.59976 19909 ft 417 kts 56°
2026-05-05 17:35 49.05875 27.63652 19649 ft 414 kts 56°
2026-05-05 17:36 49.07471 27.67281 19394 ft 414 kts 56°
2026-05-05 17:36 49.09075 27.70930 18946 ft 410 kts 56°
2026-05-05 17:36 49.10609 27.74428 18285 ft 399 kts 56°
2026-05-05 17:36 49.12130 27.77903 17610 ft 395 kts 56°
2026-05-05 17:37 49.13534 27.81504 16874 ft 399 kts 62°
2026-05-05 17:37 49.14632 27.85383 16165 ft 396 kts 70°
2026-05-05 17:37 49.15294 27.89322 15508 ft 386 kts 78°
2026-05-05 17:37 49.15675 27.93392 14843 ft 384 kts 82°
2026-05-05 17:38 49.15968 27.97490 14175 ft 387 kts 83°
2026-05-05 17:38 49.16245 28.01589 13500 ft 387 kts 83°
2026-05-05 17:38 49.16521 28.05667 12827 ft 377 kts 82°
2026-05-05 17:38 49.16791 28.09624 12187 ft 369 kts 82°
2026-05-05 17:39 49.17063 28.13579 11552 ft 374 kts 82°
2026-05-05 17:39 49.17335 28.17522 11066 ft 362 kts 82°
2026-05-05 17:39 49.17592 28.21277 10813 ft 342 kts 82°
2026-05-05 17:39 49.17828 28.24756 10684 ft 320 kts 82°
2026-05-05 17:40 49.18054 28.28076 10552 ft 307 kts 82°
2026-05-05 17:40 49.18280 28.31384 10411 ft 309 kts 82°
2026-05-05 17:40 49.18499 28.34597 10258 ft 296 kts 82°
2026-05-05 17:41 49.18838 28.39651 9864 ft 277 kts 82°
2026-05-05 17:42 49.20071 28.58194 7738 ft 270 kts 83°
2026-05-05 17:42 49.20255 28.61036 7415 ft 270 kts 84°
2026-05-05 17:43 49.20198 28.63820 7177 ft 268 kts 100°
2026-05-05 17:43 49.19467 28.66445 6818 ft 273 kts 128°
2026-05-05 17:43 49.18058 28.68331 6449 ft 271 kts 149°
2026-05-05 17:43 49.16421 28.69671 6162 ft 266 kts 153°
2026-05-05 17:44 49.14921 28.70829 6039 ft 259 kts 153°
2026-05-05 17:44 49.13317 28.72070 5976 ft 252 kts 154°
2026-05-05 17:44 49.11785 28.73256 5912 ft 244 kts 154°
2026-05-05 17:44 49.10292 28.74454 5733 ft 238 kts 147°
2026-05-05 17:45 49.09240 28.76315 5472 ft 233 kts 110°
2026-05-05 17:45 49.08998 28.78749 5244 ft 231 kts 90°
2026-05-05 17:45 49.09128 28.81205 4963 ft 230 kts 74°
2026-05-05 17:45 49.09944 28.83277 4723 ft 229 kts 42°
2026-05-05 17:46 49.11247 28.84673 4470 ft 229 kts 26°
2026-05-05 17:46 49.12796 28.85311 4214 ft 228 kts 358°
2026-05-05 17:46 49.14332 28.84819 4069 ft 226 kts 338°
2026-05-05 17:46 49.15685 28.83582 3895 ft 227 kts 315°
2026-05-05 17:47 49.16552 28.81561 3722 ft 224 kts 289°
2026-05-05 17:47 49.16893 28.79243 3518 ft 222 kts 274°
2026-05-05 17:47 49.17012 28.76892 3291 ft 221 kts 274°
2026-05-05 17:47 49.17137 28.74546 3095 ft 219 kts 274°
2026-05-05 17:48 49.17287 28.72244 2975 ft 212 kts 279°
2026-05-05 17:48 49.17852 28.70231 2803 ft 205 kts 306°
2026-05-05 17:48 49.18866 28.68715 2458 ft 207 kts 320°
2026-05-05 17:48 49.19999 28.67334 1857 ft 207 kts 318°
2026-05-05 17:49 49.21053 28.65903 1549 ft 193 kts 315°
2026-05-05 17:49 49.21957 28.64586 1595 ft 161 kts 315°
2026-05-05 17:49 49.22763 28.63524 1914 ft 156 kts 320°
2026-05-05 17:49 49.23678 28.62302 2078 ft 179 kts 313°
2026-05-05 17:50 49.24553 28.60897 2427 ft 188 kts 311°
2026-05-05 17:50 49.25437 28.59382 2781 ft 181 kts 307°
2026-05-05 17:50 49.26237 28.57792 3036 ft 195 kts 301°
2026-05-05 17:50 49.26872 28.55930 3189 ft 194 kts 295°
2026-05-05 17:51 49.27452 28.53927 3163 ft 222 kts 287°
2026-05-05 17:51 49.27681 28.51427 3526 ft 254 kts 264°
2026-05-05 17:51 49.27075 28.48744 4225 ft 272 kts 239°
2026-05-05 17:51 49.25981 28.46176 4574 ft 305 kts 237°
2026-05-05 17:52 49.24713 28.43330 5090 ft 320 kts 229°
2026-05-05 17:52 49.23027 28.40952 5129 ft 329 kts 213°
2026-05-05 17:52 49.20901 28.40048 5712 ft 315 kts 185°
2026-05-05 17:52 49.18705 28.40438 5179 ft 312 kts 162°
2026-05-05 17:53 49.16840 28.41861 5067 ft 293 kts 143°
2026-05-05 17:53 49.15456 28.44180 4632 ft 285 kts 121°
2026-05-05 17:53 49.14779 28.46971 4350 ft 273 kts 97°
2026-05-05 17:53 49.14965 28.49792 4127 ft 259 kts 71°
2026-05-05 17:54 49.15636 28.52342 3690 ft 259 kts 65°
2026-05-05 17:54 49.16445 28.54838 3274 ft 257 kts 63°
2026-05-05 17:54 49.17279 28.57215 3065 ft 245 kts 62°
2026-05-05 17:54 49.18057 28.59435 3120 ft 220 kts 62°
2026-05-05 17:55 49.18731 28.61352 3475 ft 184 kts 63°
2026-05-05 17:55 49.19346 28.63102 3871 ft 192 kts 63°
2026-05-05 17:55 49.19980 28.65102 4026 ft 213 kts 72°
2026-05-05 17:55 49.20041 28.67505 4001 ft 246 kts 106°
2026-05-05 17:56 49.19240 28.69866 3991 ft 263 kts 132°
2026-05-05 17:56 49.17736 28.71481 3902 ft 270 kts 159°
2026-05-05 17:56 49.15844 28.71897 3467 ft 271 kts 187°
2026-05-05 17:56 49.14146 28.70933 3190 ft 251 kts 216°
2026-05-05 17:57 49.13153 28.69039 3143 ft 218 kts 248°
2026-05-05 17:57 49.13049 28.66778 3079 ft 208 kts 283°
2026-05-05 17:57 49.13766 28.64994 2966 ft 185 kts 315°
2026-05-05 17:57 49.14669 28.63800 2818 ft 168 kts 332°
2026-05-05 17:58 49.15813 28.63880 2215 ft 181 kts 28°
2026-05-05 17:58 49.16792 28.65032 1951 ft 163 kts 43°
2026-05-05 17:58 49.17622 28.66196 1711 ft 157 kts 44°
2026-05-05 17:58 49.18539 28.66990 1511 ft 147 kts
2026-05-05 17:59 49.19532 28.66770 1473 ft 146 kts 342°
2026-05-05 17:59 49.20519 28.66214 1425 ft 152 kts 335°
2026-05-05 17:59 49.21384 28.65350 1392 ft 148 kts 311°
2026-05-05 17:59 49.22150 28.64249 1283 ft 151 kts 317°
2026-05-05 18:00 49.22912 28.63190 1124 ft 146 kts 317°
2026-05-05 18:00 49.23672 28.62162 968 ft 143 kts 317°
2026-05-05 18:00 49.24262 28.61351 963 ft 71 kts 319°
2026-05-05 18:00 49.24466 28.61034 961 ft 14 kts 265°
2026-05-05 18:01 49.24424 28.60936 965 ft 8 kts 228°
2026-05-05 18:01 49.24384 28.60868 968 ft 11 kts 229°
2026-05-05 18:01 49.24350 28.60752 968 ft 15 kts 295°
2026-05-05 18:01 49.24384 28.60703 965 ft 0 kts 321°
2026-05-05 18:03 49.24386 28.60696 964 ft 1 kts 272°
2026-05-05 18:03 49.24379 28.60673 964 ft 2 kts 246°
2026-05-05 18:03 49.24371 28.60654 965 ft 1 kts 224°
2026-05-05 18:03 49.24368 28.60650 965 ft 0 kts 223°